Weather History for KDVP - October, 2013

Change the Weather History Date:

Tuesday, October 1, 2013

  Actual Average (KOTG) Record (KOTG)
Temperature  
Mean Temperature 60 °F -  
Max Temperature 73 °F 62 °F 87 °F (2006)
Min Temperature 47 °F 41 °F 24 °F (2003)
Degree Days  
Heating Degree Days 5    
Growing Degree Days 10 (Base 50)    
Moisture  
Dew Point 36 °F    
Average Humidity 43    
Maximum Humidity 69    
Minimum Humidity 14    
Precipitation  
Precipitation 0.00 in - - ()
Sea Level Pressure  
Sea Level Pressure 29.89 in    
Wind  
Wind Speed 13 mph (WNW)    
Max Wind Speed 23 mph    
Max Gust Speed 30 mph    
Visibility 10 miles    
Events      
Averages and records for this station are not official NWS values.
T = Trace of Precipitation, MM = Missing Value Source: NWS Daily Summary

Daily Weather History Graph

Daily Weather History Graph

Search for Another Location

Airport or City:

Trip Planner

Search our weather history database for the weather conditions in past years. The results will help you decide how hot, cold, wet, or windy it might be!

Date:

Astronomy

Oct. 01, 2013 Rise Set
Actual Time 7:21 AM CDT 7:03 PM CDT
Civil Twilight 6:52 AM CDT 7:32 PM CDT
Nautical Twilight 6:18 AM CDT 8:05 PM CDT
Astronomical Twilight 5:44 AM CDT 8:39 PM CDT
Moon 3:50 AM CDT 5:12 PM CDT
Length of Visible Light 12h 39m
Length of Day
11h 42m
Waning Crescent, 12% of the Moon is Illuminated
Oct 1
Waning Crescent
Oct 4
New
Oct 11
First Quarter
Oct 18
Full
Oct 26
Last Quarter

Hourly Weather History & Observations

Time (CDT) Temp. Dew Point Humidity Pressure Visibility Wind Dir Wind Speed Gust Speed Precip Events Conditions
12:13 AM 67.3 °F 48.4 °F 51% 29.63 in 10.0 mi SSW 18.4 mph 25.3 mph N/A   Clear
12:33 AM 67.3 °F 48.4 °F 51% 29.63 in 10.0 mi SSW 20.7 mph 27.6 mph N/A   Clear
12:53 AM 66.7 °F 48.7 °F 52% 29.63 in 10.0 mi SSW 19.6 mph 28.8 mph N/A   Clear
1:13 AM 66.2 °F 49.1 °F 54% 29.64 in 10.0 mi SSW 18.4 mph 27.6 mph N/A   Clear
1:33 AM 66.2 °F 48.7 °F 53% 29.64 in 10.0 mi SSW 23.0 mph 29.9 mph N/A   Clear
1:53 AM 65.7 °F 49.1 °F 55% 29.65 in 10.0 mi SSW 20.7 mph 28.8 mph N/A   Clear
2:13 AM 64.6 °F 49.3 °F 58% 29.66 in 10.0 mi SSW 20.7 mph 26.5 mph N/A   Clear
2:33 AM 64.4 °F 49.5 °F 58% 29.66 in 10.0 mi SW 17.3 mph 25.3 mph N/A   Clear
2:53 AM 64.0 °F 49.5 °F 59% 29.66 in 10.0 mi SSW 19.6 mph 25.3 mph N/A   Clear
3:13 AM 63.7 °F 49.6 °F 60% 29.68 in 10.0 mi SW 15.0 mph 20.7 mph N/A   Clear
3:32 AM 63.1 °F 49.8 °F 62% 29.68 in 10.0 mi SW 16.1 mph 26.5 mph N/A   Clear
3:53 AM 62.2 °F 50.0 °F 64% 29.69 in 10.0 mi SW 15.0 mph - N/A   Clear
4:13 AM 62.6 °F 49.5 °F 62% 29.72 in 10.0 mi West 12.7 mph 18.4 mph N/A   Clear
4:33 AM 61.3 °F 49.5 °F 65% 29.74 in 10.0 mi WNW 9.2 mph - N/A   Clear
4:53 AM 59.9 °F 49.1 °F 67% 29.75 in 10.0 mi WNW 9.2 mph - N/A   Clear
5:13 AM 58.6 °F 48.6 °F 69% 29.76 in 10.0 mi NW 10.4 mph - N/A   Clear
5:33 AM 58.3 °F 47.7 °F 68% 29.78 in 10.0 mi NW 13.8 mph 19.6 mph N/A   Clear
5:53 AM 60.1 °F 45.0 °F 57% 29.79 in 10.0 mi WNW 10.4 mph 17.3 mph N/A   Clear
6:13 AM 58.5 °F 45.7 °F 62% 29.81 in 10.0 mi NW 12.7 mph - N/A   Clear
6:33 AM 56.7 °F 45.3 °F 66% 29.83 in 10.0 mi WNW 9.2 mph - N/A   Clear
6:53 AM 55.6 °F 44.8 °F 67% 29.85 in 10.0 mi WNW 10.4 mph - N/A   Clear
7:12 AM 55.6 °F 44.4 °F 66% 29.85 in 10.0 mi WNW 11.5 mph - N/A   Clear
7:33 AM 55.0 °F 44.6 °F 68% 29.86 in 10.0 mi WNW 12.7 mph - N/A   Clear
7:53 AM 54.7 °F 44.2 °F 68% 29.87 in 10.0 mi WNW 10.4 mph - N/A   Clear
8:13 AM 55.0 °F 43.9 °F 66% 29.88 in 10.0 mi NW 10.4 mph - N/A   Clear
8:33 AM 55.6 °F 43.3 °F 63% 29.88 in 10.0 mi NW 11.5 mph - N/A   Clear
8:53 AM 57.2 °F 41.9 °F 57% 29.89 in 10.0 mi NW 10.4 mph - N/A   Clear
9:13 AM 59.9 °F 40.1 °F 48% 29.90 in 10.0 mi NW 11.5 mph - N/A   Clear
9:33 AM 62.1 °F 36.3 °F 38% 29.90 in 10.0 mi NW 16.1 mph 19.6 mph N/A   Clear
9:53 AM 63.1 °F 34.2 °F 34% 29.91 in 10.0 mi NW 15.0 mph 20.7 mph N/A   Clear
10:13 AM 65.1 °F 32.5 °F 30% 29.93 in 10.0 mi NNW 12.7 mph 17.3 mph N/A   Clear
10:33 AM 66.2 °F 31.3 °F 27% 29.94 in 10.0 mi NNW 13.8 mph 18.4 mph N/A   Clear
10:53 AM 67.1 °F 31.1 °F 26% 29.94 in 10.0 mi NNW 9.2 mph 12.7 mph N/A   Clear
11:13 AM 67.8 °F 30.7 °F 25% 29.94 in 10.0 mi NNW 12.7 mph 21.9 mph N/A   Clear
11:33 AM 68.9 °F 29.8 °F 23% 29.95 in 10.0 mi NW 16.1 mph - N/A   Clear
11:53 AM 69.8 °F 28.2 °F 21% 29.95 in 10.0 mi NW 17.3 mph - N/A   Clear
12:13 PM 70.3 °F 29.3 °F 22% 29.95 in 10.0 mi NW 15.0 mph 21.9 mph N/A   Clear
12:33 PM 71.1 °F 27.3 °F 20% 29.95 in 10.0 mi NNW 15.0 mph 21.9 mph N/A   Clear
12:53 PM 71.8 °F 25.2 °F 18% 29.96 in 10.0 mi NW 16.1 mph 21.9 mph N/A   Clear
1:13 PM 72.5 °F 24.6 °F 17% 29.96 in 10.0 mi West 11.5 mph - N/A   Clear
1:34 PM 72.7 °F 25.2 °F 17% 29.96 in 10.0 mi WNW 12.7 mph 18.4 mph N/A   Clear
1:53 PM 73.2 °F 25.3 °F 17% 29.96 in 10.0 mi West 11.5 mph - N/A   Clear
2:13 PM 73.0 °F 27.7 °F 19% 29.96 in 10.0 mi WNW 13.8 mph - N/A   Clear
2:33 PM 73.0 °F 25.7 °F 17% 29.97 in 10.0 mi West 12.7 mph 18.4 mph N/A   Clear
2:53 PM 73.8 °F 23.7 °F 15% 29.97 in 10.0 mi WNW 12.7 mph 17.3 mph N/A   Clear
3:13 PM 73.6 °F 23.0 °F 15% 29.97 in 10.0 mi WNW 13.8 mph - N/A   Clear
3:33 PM 73.6 °F 23.5 °F 15% 29.97 in 10.0 mi West 10.4 mph - N/A   Clear
3:53 PM 73.6 °F 22.6 °F 15% 29.97 in 10.0 mi WSW 10.4 mph - N/A   Clear
4:12 PM 73.6 °F 23.7 °F 16% 29.97 in 10.0 mi WNW 10.4 mph - N/A   Clear
4:33 PM 73.4 °F 22.1 °F 15% 29.97 in 10.0 mi West 10.4 mph - N/A   Clear
4:53 PM 73.4 °F 22.3 °F 15% 29.97 in 10.0 mi West 9.2 mph 16.1 mph N/A   Clear
5:13 PM 73.4 °F 21.4 °F 14% 29.97 in 10.0 mi West 6.9 mph - N/A   Clear
5:33 PM 72.7 °F 22.5 °F 15% 29.97 in 10.0 mi West 10.4 mph - N/A   Clear
5:53 PM 72.0 °F 24.6 °F 17% 29.98 in 10.0 mi Calm Calm - N/A   Clear
6:13 PM 70.5 °F 26.2 °F 19% 29.98 in 10.0 mi Calm Calm - N/A   Clear
6:33 PM 68.2 °F 26.6 °F 21% 29.98 in 10.0 mi Calm Calm - N/A   Clear
6:53 PM 65.1 °F 28.0 °F 25% 29.98 in 7.0 mi West 3.5 mph - N/A   Clear
7:13 PM 61.7 °F 30.9 °F 31% 29.98 in 7.0 mi Calm Calm - N/A   Clear
7:33 PM 59.9 °F 31.8 °F 35% 29.99 in 10.0 mi Calm Calm - N/A   Clear
7:52 PM 54.5 °F 35.2 °F 48% 29.99 in 10.0 mi Calm Calm - N/A   Clear
8:13 PM 52.9 °F 35.8 °F 52% 30.00 in 10.0 mi Calm Calm - N/A   Clear
8:33 PM 52.7 °F 35.2 °F 52% 30.00 in 10.0 mi Calm Calm - N/A   Clear
8:53 PM 52.7 °F 35.1 °F 51% 30.00 in 10.0 mi Calm Calm - N/A   Clear
9:13 PM 50.7 °F 35.6 °F 56% 30.01 in 10.0 mi Calm Calm - N/A   Clear
9:33 PM 49.5 °F 36.1 °F 60% 30.01 in 7.0 mi Calm Calm - N/A   Clear
9:53 PM 49.8 °F 36.5 °F 60% 30.02 in 10.0 mi Calm Calm - N/A   Clear
10:13 PM 50.0 °F 35.2 °F 57% 30.02 in 10.0 mi Calm Calm - N/A   Clear
10:33 PM 48.0 °F 36.0 °F 63% 30.02 in 10.0 mi Calm Calm - N/A   Clear
10:53 PM 47.5 °F 36.1 °F 65% 30.03 in 10.0 mi NW 3.5 mph - N/A   Clear
11:13 PM 47.8 °F 35.6 °F 63% 30.03 in 10.0 mi NW 3.5 mph - N/A   Clear
11:32 PM 47.1 °F 35.6 °F 64% 30.03 in 10.0 mi NW 3.5 mph - N/A   Clear
11:53 PM 47.3 °F 36.0 °F 65% 30.04 in 10.0 mi Calm Calm - N/A   Clear